Location: Newark
(44.1039°N, 103.0983°W)
Time: 22:50:48
(UTC+00:00)

Envisat - Visible Passes

Search period start: 17 January 2020 00:00
Search period end: 27 January 2020 00:00
Orbit: 764 x 766 km, 98.1° (Epoch: 17 January)

Date Brightness Start Highest point End Pass type
(mag) Time Alt. Az. Time Alt. Az. Time Alt. Az.
17 Jan 3.1 00:44:26 10° SSE 00:49:31 83° WSW 00:54:38 10° NNW visible
17 Jan 5.0 12:52:12 10° NNE 12:56:41 30° E 13:01:08 10° SSE visible
18 Jan 3.3 00:08:01 10° SE 00:12:50 46° ENE 00:17:42 10° N visible
18 Jan 5.5 01:48:08 10° SW 01:52:05 23° W 01:56:03 10° NW visible
18 Jan 6.1 12:16:52 10° ENE 12:19:33 14° E 12:22:13 10° ESE visible
19 Jan 4.1 01:10:10 10° S 01:15:04 48° W 01:19:59 10° NNW visible
19 Jan 4.0 13:17:19 10° NNE 13:22:18 52° E 13:27:15 10° S visible
20 Jan 2.9 00:33:10 10° SSE 00:38:14 79° ENE 00:43:21 10° N visible
20 Jan 6.2 02:15:35 10° WSW 02:17:52 13° W 02:20:10 10° WNW visible
20 Jan 5.4 12:41:11 10° NE 12:45:19 24° E 12:49:25 10° SSE visible
21 Jan 5.1 01:36:22 10° SSW 01:40:41 28° W 01:45:04 10° NW visible
21 Jan 6.4 12:06:43 10° ENE 12:08:06 11° E 12:09:28 10° ESE visible
21 Jan 3.1 13:42:43 10° NNE 13:47:50 90° ESE 13:52:54 10° SSW visible
22 Jan 3.6 00:58:44 10° S 01:03:44 61° W 01:08:47 10° NNW visible
22 Jan 4.4 13:06:09 10° NNE 13:10:58 42° E 13:15:46 10° SSE visible
23 Jan 3.0 00:21:58 10° SSE 00:26:58 63° ENE 00:32:01 10° N visible
23 Jan 5.9 02:03:16 10° SW 02:06:26 16° W 02:09:37 10° NW visible
23 Jan 5.8 12:30:15 10° NE 12:33:54 20° E 12:37:33 10° SE visible
24 Jan 4.7 01:24:43 10° SSW 01:29:20 35° W 01:34:00 10° NNW visible
24 Jan 3.4 13:31:26 10° NNE 13:36:32 72° ESE 13:41:36 10° S visible
25 Jan 3.2 00:47:21 10° S 00:52:26 76° WSW 00:57:33 10° NNW visible
25 Jan 4.9 12:55:01 10° NNE 12:59:37 33° E 13:04:11 10° SSE visible
26 Jan 5.6 01:51:16 10° SW 01:55:01 21° W 01:58:49 10° NW visible
26 Jan 6.1 12:19:29 10° NE 12:22:30 16° E 12:25:29 10° SE visible
